Weather History for Guymon, OK

Change the Weather History Date:

Saturday, June 18, 2011

  Actual Average Record
Temperature  
Mean Temperature 79 °F 75 °F  
Max Temperature 96 °F 88 °F 100 °F (2012)
Min Temperature 61 °F 61 °F 48 °F (2000)
Degree Days  
Heating Degree Days 0 0  
Month to date heating degree days 0 6  
Since 1 June heating degree days 0 6  
Since 1 July heating degree days 4178 4455  
Cooling Degree Days 14 10  
Month to date cooling degree days 281 140  
Year to date cooling degree days 444 248  
Since 1 June cooling degree days 281 140  
Growing Degree Days 27 (Base 50)    
Moisture  
Dew Point 50 °F    
Average Humidity 44    
Maximum Humidity 72    
Minimum Humidity 16    
Precipitation  
Precipitation 0.00 in 0.10 in 0.19 in (2013)
Month to date precipitation 0.16 2.06  
Year to date precipitation 1.63 8.31  
Snow  
Snow 0.00 in - - ()
Month to date snowfall 0.0  
Since 1 June snowfall 0.0  
Since 1 July snowfall 9.2  
Snow Depth 0.00 in    
Sea Level Pressure  
Sea Level Pressure 29.68 in    
Wind  
Wind Speed 8 mph (NNE)    
Max Wind Speed 26 mph    
Max Gust Speed 33 mph    
Visibility 10 miles    
Events      
T = Trace of Precipitation, MM = Missing Value Source: NWS Daily Summary

Daily Weather History Graph

Daily Weather History Graph

Search for Another Location

Airport:

Trip Planner

Search our weather history database for the weather conditions in past years. The results will help you decide how hot, cold, wet, or windy it might be!

Date:

Astronomy

Jun. 18, 2011 Rise Set
Actual Time 6:27 AM CDT 9:07 PM CDT
Civil Twilight 5:56 AM CDT 9:37 PM CDT
Nautical Twilight 5:18 AM CDT 10:16 PM CDT
Astronomical Twilight 4:35 AM CDT 10:58 PM CDT
Moon 11:24 PM CDT (6/18) 9:19 AM CDT (6/18)
Length of Visible Light 15h 41m
Length of Day
14h 40m
Waning Gibbous, 91% of the Moon is Illuminated
Jun 18
Waning Gibbous
Jun 23
Last Quarter
Jul 1
New
Jul 8
First Quarter
Jul 15
Full

Hourly Weather History & Observations

Time (CDT) Temp. Dew Point Humidity Pressure Visibility Wind Dir Wind Speed Gust Speed Precip Events Conditions
12:53 AM 73.9 °F 57.0 °F 55% 29.67 in 10.0 mi NE 20.7 mph 29.9 mph N/A   Mostly Cloudy
1:53 AM 66.9 °F 53.1 °F 61% 29.68 in 10.0 mi NNE 13.8 mph 21.9 mph N/A   Clear
2:53 AM 64.0 °F 54.0 °F 70% 29.69 in 10.0 mi NNE 8.1 mph - N/A   Clear
3:53 AM 63.0 °F 54.0 °F 72% 29.73 in 10.0 mi NNW 12.7 mph - N/A   Partly Cloudy
4:53 AM 64.0 °F 52.0 °F 65% 29.73 in 10.0 mi North 10.4 mph - N/A   Overcast
5:53 AM 64.0 °F 52.0 °F 65% 29.73 in 10.0 mi NNW 10.4 mph - N/A   Overcast
6:53 AM 61.0 °F 51.1 °F 70% 29.76 in 10.0 mi NNW 8.1 mph - N/A   Clear
7:53 AM 66.9 °F 51.1 °F 57% 29.77 in 10.0 mi NNW 11.5 mph - N/A   Partly Cloudy
8:53 AM 71.1 °F 51.1 °F 49% 29.76 in 10.0 mi NNW 11.5 mph - N/A   Clear
9:53 AM 75.0 °F 52.0 °F 44% 29.76 in 10.0 mi North 9.2 mph 17.3 mph N/A   Clear
10:53 AM 79.0 °F 51.1 °F 38% 29.74 in 10.0 mi Variable 4.6 mph - N/A   Clear
11:53 AM 81.0 °F 52.0 °F 36% 29.74 in 10.0 mi Calm Calm - N/A   Clear
12:53 PM 84.9 °F 50.0 °F 30% 29.73 in 10.0 mi Calm Calm - N/A   Clear
1:53 PM 87.1 °F 51.1 °F 29% 29.71 in 10.0 mi Variable 5.8 mph - N/A   Clear
2:53 PM 90.0 °F 51.1 °F 26% 29.68 in 10.0 mi Variable 5.8 mph - N/A   Clear
3:53 PM 91.0 °F 48.0 °F 23% 29.66 in 10.0 mi Variable 3.5 mph - N/A   Clear
4:53 PM 91.9 °F 46.0 °F 21% 29.64 in 10.0 mi Variable 3.5 mph - N/A   Partly Cloudy
5:53 PM 93.9 °F 45.0 °F 18% 29.62 in 10.0 mi SSE 8.1 mph - N/A   Scattered Clouds
6:53 PM 93.9 °F 41.0 °F 16% 29.58 in 10.0 mi SSW 9.2 mph - N/A   Clear
8:53 PM 87.1 °F 37.9 °F 18% 29.55 in 10.0 mi SE 6.9 mph - N/A   Clear
9:53 PM 84.0 °F 44.1 °F 25% 29.55 in 10.0 mi SE 9.2 mph - N/A   Clear
10:53 PM 80.1 °F 46.9 °F 31% 29.55 in 10.0 mi ESE 10.4 mph - N/A   Clear
11:53 PM 79.0 °F 55.0 °F 44% 29.58 in 10.0 mi East 18.4 mph 25.3 mph N/A   Clear